Regional Weather Roundup
Issued by NWS

Home | Current Version | Previous Version | Text Only | Print | Product List | Glossary Off
Versions: 1 2 3 4 5 6 7 8 9 10 11 12 13 14 15 16 17 18 19 20 21 22 23 24 25 26 27 28 29 30 31 32 33 34 35 36 37 38 39 40 41 42 43 44 45 46 47 48 49 50

000
ASUS43 KMKX 040300
RWRWI

WISCONSIN REGIONAL WEATHER ROUNDUP
NATIONAL WEATHER SERVICE MILWAUKEE/SULLIVAN WI
900 PM CST SAT DEC 03 2016

NOTE: "FAIR" INDICATES FEW OR NO CLOUDS BELOW 12,000 FEET WITH NO
SIGNIFICANT WEATHER AND/OR OBSTRUCTIONS TO VISIBILITY.

WIZ001-002-006>008-014>016-023>028-040400-
NORTHWEST WISCONSIN

CITY           SKY/WX    TMP DP  RH WIND       PRES   REMARKS
SUPERIOR ARPT  CLOUDY    30  22  70 SW3       30.19F
ASHLAND        CLOUDY    30  23  75 S3        30.21F
HAYWARD        CLOUDY    29  20  69 S8        30.18F WCI  21
SIREN          CLOUDY    29  20  70 SE7       30.17F WCI  22
CUMBERLAND     CLOUDY    28  21  74 CALM      30.17F
RICE LAKE      PTCLDY    28  21  77 SE3       30.20F
CHETEK         PTCLDY    27  22  79 E8        30.19F WCI  19
LADYSMITH      CLOUDY    29  24  80 CALM      30.20F
EAU CLAIRE     NOT AVBL
MENOMONIE      CLOUDY    30  24  76 E6        30.20F WCI  24
NEW RICHMOND   CLOUDY    30  22  74 SE6       30.17F WCI  24
OSCEOLA        CLOUDY    31  23  74 E7        30.20F WCI  24
$$

WIZ003>005-009-010-017-018-040400-
NORTH CENTRAL WISCONSIN

CITY           SKY/WX    TMP DP  RH WIND       PRES   REMARKS
MANITOWISH WTR CLOUDY    26  21  80 S6        30.18S WCI  20
ARBOR VITAE    CLOUDY    29  23  76 S6        30.19S WCI  23
WOODRUFF       CLOUDY    29  23  76 S6        30.19S WCI  23
RHINELANDER    CLOUDY    28  20  71 W3        30.19F
EAGLE RIVER    CLOUDY    27  19  73 SW7       30.18S WCI  19
LAND O LAKES   CLOUDY    28  22  78 CALM      30.20S
PHILLIPS       CLOUDY    27  22  82 SW3       30.18F
TOMAHAWK       CLOUDY    28  20  74 CALM      30.20F
MEDFORD        CLOUDY    27  21  79 S3        30.18F
MERRILL        CLOUDY    28  22  77 SW5       30.21F WCI  23
$$

WIZ029-030-035-036-043>047-040400-
CENTRAL WISCONSIN

CITY           SKY/WX    TMP DP  RH WIND       PRES   REMARKS
WAUSAU         CLOUDY    28  21  75 CALM      30.20F
MOSINEE        CLOUDY    28  25  86 CALM      30.22F
MARSHFIELD     CLOUDY    28  21  75 CALM      30.19F
STEVENS POINT  CLOUDY    27  21  77 CALM      30.23F
WAUPACA        CLOUDY    32  23  68 CALM      30.26F
WAUTOMA        CLOUDY    29  24  82 SE5       30.25F WCI  24
WISC RAPIDS    CLOUDY    29  22  75 SE5       30.23F WCI  24
CAMP DOUGLAS   NOT AVBL
$$

WIZ011>013-019>022-031-037>040-048>050-040400-
NORTHEAST WISCONSIN

CITY           SKY/WX    TMP DP  RH WIND       PRES   REMARKS
ANTIGO         CLOUDY    27  21  79 SW6       30.20F WCI  20
SHAWANO        CLOUDY    32  24  72 CALM      30.25F
OCONTO         CLOUDY    31  21  67 CALM      30.26S
STURGEON BAY   CLOUDY    30  25  80 SW5       30.26F WCI  25
GREEN BAY      CLOUDY    33  24  69 S5        30.26S WCI  29
MANITOWOC      NOT AVBL
APPLETON       CLOUDY    30  19  64 VRB3      30.24S
CLINTONVILLE   CLOUDY    32  23  69 W5        30.25S WCI  27
OSHKOSH        CLOUDY    30  22  72 S3        30.26S
$$

WIZ032>034-041-042-053>061-040400-
SOUTHWEST WISCONSIN

CITY           SKY/WX    TMP DP  RH WIND       PRES   REMARKS
LA CROSSE      CLOUDY    33  26  75 SE6       30.21F WCI  28
SPARTA         CLOUDY    31  27  85 CALM      30.23F
VIROQUA        CLOUDY    30  27  89 SE6       30.20F WCI  24
BOSCOBEL       MOCLDY    32  26  78 CALM      30.24F
PRAIRIE DU CHI CLOUDY    33  26  76 E6        30.23F WCI  28
PLATTEVILLE    PTCLDY    32  30  91 SE6       30.24F WCI  26
$$

WIZ056-057-062-063-064-067-068-040400-
SOUTH CENTRAL WISCONSIN

CITY           SKY/WX    TMP DP  RH WIND       PRES   REMARKS
REEDSBURG      CLOUDY    30  25  82 CALM      30.24S
BARABOO/DELLS  CLOUDY    31  25  78 SE3       30.24S
LONE ROCK      NOT AVBL
MINERAL POINT  PTCLDY    32  30  93 SE5       30.23F WCI  27
MADISON        CLOUDY    31  24  75 SE5       30.25F WCI  26
MIDDLETON      PTCLDY    33  27  80 S5        30.25S WCI  28
WATERTOWN      CLOUDY    30  27  88 SE3       30.26F
MONROE         PTCLDY    32  28  86 SE5       30.24F WCI  27
JANESVILLE     CLOUDY    34  28  80 VRB5      30.26F WCI  30
$$

WIZ051-052-058>065-066-070>072-040400-
SOUTHEAST WISCONSIN

CITY           SKY/WX    TMP DP  RH WIND       PRES   REMARKS
MILWAUKEE      CLOUDY    32  22  66 S3        30.29S
WAUKESHA       CLOUDY    28  21  74 CALM      30.28F
MILWAUKEE/TIMM CLOUDY    30  19  64 CALM      30.29S
RACINE         CLOUDY    32  23  69 CALM      30.30F
BURLINGTON     CLOUDY    31  26  81 CALM      30.28S
KENOSHA        CLOUDY    31  24  75 CALM      30.28F
FOND DU LAC    CLOUDY    30  22  72 S3        30.27S
SHEBOYGAN      CLOUDY    30  22  72 CALM      30.27S
WEST BEND      CLOUDY    30  27  86 CALM      30.27F
JUNEAU         CLOUDY    29  24  82 SE5       30.27F WCI  24
$$

LSZ147-162-040400-
LAKE SUPERIOR

STATION/POSITION TIME  TEMP    WIND        PRES    WAVE
                       AIR SEA DIR/SP/G            HT/PER
                 (UTC) (F)     (DEG/KT/KT) (MB)    (FT/S)
DEVILS ISLAND    0200   33     210/  8/ 11 1024.0F
PORT WING        0240   31     180/  3/  5 1022.7F
SAXON HARBOR     0240   31     190/  4/  5 1023.0F
$$

LMZ867-665-643>646-040400-
LAKE MICHIGAN

STATION/POSITION TIME  TEMP    WIND        PRES    WAVE
                       AIR SEA DIR/SP/G            HT/PER
                 (UTC) (F)     (DEG/KT/KT) (MB)    (FT/S)
CHAMBERS ISLAND  0240   34     150/  1/  6 1023.7F
NORTHPORT PIER   0240   33      CALM  /  4 1024.0F
SISTER BAY       0153   33     190/  7/ 10   N/A
ALGOMA LAKESHORE 0221          250/  6/  7   N/A
KEWAUNEE LAKESHO 0230   32     330/  2/  2 1024.1F
SHEBOYGAN LAKESH 0200   31     250/  4/  5 1025.8F
PORT WASHINGTON  0240   32     260/  2/  2 1026.4S
MILWAUKEE LAKESH 0240   33     250/  4/  5   N/A
S MID LAKE BUOY  0150   35 48  300/  2/  6 1026.1S   1/ 3
KENOSHA   LAKESH 0200   33      10/  4/  6 1025.7
$$

TC  - TEMPERATURE IN CELSIUS
VSB - VISIBILITY IN STATUTE MILES
WCI - WIND CHILL INDEX
HX  - HEAT INDEX





USA.gov is the U.S. government's official web portal to all federal, state and local government web resources and services.